[[{"header":{"parameterUnit":"m.s-1","parameterCategory":1,"la1":30.2991,"la2":30.254,"lo1":-89.0895,"lo2":-89.0444,"dy":0.0017,"dx":0.0017,"nx":28,"ny":28,"refTime":"2023-08-26T21:00:00:Z","depth":0,"parameterNumber":2,"parameterNumberName":"U-component_of_WINDS"},"data":[0,0,0,0,0,0,0,0,0,0,0,0,0,0,0,0,0,0,0,0,0,0,0,0,0,0,0,0,0,0,0,0,0,0,0,0,0,0,0,0,0,0,0,0,0,0,0,0,0,0,0,0,0,0,0,0,0,0,1.6553,1.6552,0,1.6498,1.6497,1.6497,1.6409,1.6408,1.6406,1.6405,1.6348,1.6348,1.6348,0,0,0,0,0,0,0,0,0,0,0,0,0,1.6584,1.6584,1.6553,1.6552,1.6552,1.6498,1.6497,1.6497,1.641,1.6408,1.6406,1.6404,1.6348,1.6348,1.6348,0,0,0,0,0,0,0,0,0,0,0,0,0,1.6554,1.6584,1.6553,1.6502,1.6497,1.6498,1.6497,1.6496,1.641,1.6408,1.6405,1.6403,1.6348,1.6348,1.6348,1.6395,0,0,1.6348,1.6348,0,0,0,0,0,0,0,0,1.6556,1.6553,1.651,1.6505,1.65,1.6458,1.6487,1.6463,1.6411,1.6443,1.6405,1.6402,1.6387,1.6383,1.6378,1.6393,1.639,1.6348,1.6348,1.6348,1.6348,0,0,0,0,0,0,0,1.6558,1.6555,1.6531,1.6509,1.6503,1.6482,1.6475,1.6482,1.6429,1.644,1.6434,1.6428,1.6383,1.6379,1.6376,1.639,1.6348,1.6348,1.6348,1.6348,1.6442,1.6445,0,0,0,0,0,0,1.6567,1.6557,1.6533,1.6529,1.6522,1.6483,1.6476,1.6474,1.6429,1.6419,1.643,1.6424,1.638,1.6377,1.6374,1.6428,1.6348,1.6348,1.6348,1.644,1.6443,1.6446,0,0,0,0,0,0,1.6568,1.6566,1.6535,1.6541,1.6536,1.6485,1.6484,1.6474,1.6469,1.6421,1.6411,1.6435,1.6378,1.6374,1.6391,1.6425,1.6348,1.6348,1.6437,1.6441,1.6444,1.6535,0,0,0,0,0,0,1.657,1.6567,1.6584,1.6542,1.6536,1.6553,1.6486,1.6475,1.6469,1.6461,1.6423,1.6415,1.6376,1.6392,1.6391,1.6423,1.6348,1.6434,1.6439,1.6443,1.6529,1.6541,1.6552,0,0,0,0,0,1.6571,1.6611,1.6585,1.6583,1.6556,1.6555,1.6551,1.6506,1.6472,1.6489,1.6459,1.6416,1.6421,1.6394,1.6393,1.6425,1.6431,1.6437,1.6443,1.6523,1.6539,1.6552,0,0,0,0,0,0,1.6657,1.6604,1.6575,1.6603,1.6584,1.654,1.656,1.6523,1.6514,1.6506,1.645,1.6443,1.6468,1.6448,1.6419,1.647,1.642,1.6425,1.6482,1.6496,1.6507,1.6512,1.6348,0,0,0,0,0,1.6679,1.6683,1.6637,1.6666,1.6658,1.6611,1.6609,1.6576,1.6554,1.6546,1.6516,1.6497,1.6495,1.6494,1.6489,1.6526,1.6517,1.6547,1.6559,1.6569,1.6575,1.6595,1.6608,1.6464,1.6464,1.6464,0,0,1.6725,1.6697,1.6702,1.6682,1.6664,1.667,1.6605,1.6613,1.6617,1.6547,1.6562,1.654,1.6515,1.6543,1.6553,1.6527,1.6613,1.6576,1.6584,1.6585,1.6602,1.6616,1.6628,1.6468,1.6468,1.6467,0,0,1.6811,1.679,1.6813,1.6796,1.6769,1.6738,1.6744,1.6706,1.669,1.6704,1.6652,1.6656,1.6652,1.6637,1.6629,1.6713,1.6673,1.6713,1.6774,1.6794,1.6805,1.6815,1.6847,1.6858,1.6718,1.6719,1.6719,0,1.6872,1.6878,1.6829,1.6841,1.6835,1.6772,1.6796,1.6782,1.6755,1.6752,1.6723,1.6719,1.6697,1.6722,1.6743,1.6738,1.6743,1.6717,1.6808,1.6817,1.6825,1.6855,1.6867,1.6724,1.6723,1.6723,1.6722,0,1.6954,1.6959,1.6981,1.6958,1.6953,1.6971,1.6926,1.6927,1.6896,1.6868,1.6885,1.6857,1.6846,1.6849,1.6817,1.687,1.6855,1.6818,1.6766,1.6845,1.6872,1.6882,1.6731,1.6729,1.6728,1.6726,0,0,1.7092,1.7043,1.7052,1.7041,1.7008,1.7012,1.7027,1.7017,1.7021,1.7005,1.7017,1.7017,1.6983,1.6974,1.694,1.6958,1.7028,1.6918,1.6917,1.6941,1.7087,1.7116,1.713,1.7002,1.7004,1.7006,1.7089,0,1.7172,1.7196,1.7154,1.7188,1.7193,1.7135,1.7149,1.7131,1.7106,1.7108,1.708,1.7081,1.7035,1.703,1.7045,1.7017,1.7057,1.701,1.7014,1.7015,1.7023,1.7143,1.7173,1.7253,1.7099,1.7101,1.7102,0,1.7269,1.7259,1.7294,1.7261,1.7262,1.7275,1.7263,1.7265,1.7244,1.7225,1.7217,1.7177,1.7191,1.7142,1.7162,1.7131,1.713,1.7117,1.7119,1.7118,1.7064,1.7147,1.7278,1.7291,1.7118,1.7117,1.7116,0,1.7368,1.7363,1.7384,1.7376,1.7338,1.7349,1.7334,1.731,1.7308,1.7298,1.7296,1.7288,1.7284,1.728,1.724,1.7207,1.7265,1.7212,1.7251,1.7252,1.7265,1.7265,1.74,1.7264,1.7264,1.7264,1.7263,0,1.7462,1.7486,1.7428,1.7441,1.7467,1.7418,1.7445,1.7424,1.7405,1.7413,1.7362,1.7372,1.7318,1.7322,1.7291,1.7313,1.7311,1.7297,1.7289,1.7302,1.7304,1.7301,1.7295,1.7267,1.7266,1.7265,1.7265,0,1.7577,1.7538,1.7558,1.7521,1.7512,1.7533,1.7501,1.7512,1.7485,1.7497,1.7497,1.7454,1.7456,1.7416,1.741,1.7389,1.7426,1.7407,1.7433,1.7428,1.7469,1.7467,1.7607,1.7624,1.7477,1.7478,1.748,0,1.764,1.7657,1.7623,1.7625,1.7612,1.7616,1.7614,1.7568,1.7568,1.7547,1.7561,1.7559,1.7555,1.7561,1.753,1.7526,1.7507,1.7557,1.7506,1.752,1.751,1.751,1.7512,1.7568,1.757,1.7571,1.7572,0,1.7757,1.7738,1.7736,1.7729,1.7728,1.772,1.7708,1.7713,1.7663,1.7666,1.7668,1.7665,1.766,1.7659,1.7649,1.7634,1.7596,1.7589,1.7598,1.7612,1.7627,1.7621,1.7463,1.7586,1.7584,1.7583,1.7583,1.7582,1.7848,1.7862,1.784,1.7841,1.7828,1.7819,1.7828,1.7803,1.7804,1.7796,1.7769,1.7776,1.7757,1.774,1.7729,1.7734,1.771,1.7723,1.7726,1.773,1.7739,1.7626,1.7732,1.7732,1.7731,1.7731,1.7731,0,1.7963,1.7947,1.7948,1.7935,1.7936,1.79,1.7887,1.789,1.7897,1.7882,1.788,1.7884,1.7884,1.7854,1.785,1.786,1.7843,1.7861,1.786,1.7858,1.776,1.7753,1.7876,1.7876,1.7876,1.7876,1.7875,1.7875,1.8024,1.8045,1.8024,1.804,1.8023,1.803,1.8026,1.8018,1.8006,1.8013,1.8013,1.7993,1.7973,1.7968,1.7966,1.7958,1.7959,1.7984,1.797,1.7878,1.7864,1.7851,1.7845,1.7984,1.7985,1.8067,1.8068,1.8069]},{"header":{"parameterUnit":"m.s-1","parameterCategory":1,"la1":30.2991,"la2":30.254,"lo1":-89.0895,"lo2":-89.0444,"dy":0.0017,"dx":0.0017,"nx":28,"ny":28,"refTime":"2023-08-26T21:00:00:Z","depth":0,"parameterNumber":3,"parameterNumberName":"V-component_of_WINDS"},"data":[0,0,0,0,0,0,0,0,0,0,0,0,0,0,0,0,0,0,0,0,0,0,0,0,0,0,0,0,0,0,0,0,0,0,0,0,0,0,0,0,0,0,0,0,0,0,0,0,0,0,0,0,0,0,0,0,0,0,-1.8171,-1.8171,0,-1.8151,-1.8151,-1.815,-1.8108,-1.8107,-1.8106,-1.8105,-1.8086,-1.8086,-1.8086,0,0,0,0,0,0,0,0,0,0,0,0,0,-1.8173,-1.8173,-1.8171,-1.8171,-1.817,-1.8151,-1.8151,-1.815,-1.8108,-1.8107,-1.8106,-1.8105,-1.8086,-1.8086,-1.8086,0,0,0,0,0,0,0,0,0,0,0,0,0,-1.8165,-1.8173,-1.8171,-1.8147,-1.8144,-1.8151,-1.8151,-1.815,-1.8108,-1.8107,-1.8106,-1.8104,-1.8086,-1.8086,-1.8086,-1.8115,0,0,-1.8088,-1.8088,0,0,0,0,0,0,0,0,-1.8165,-1.8165,-1.8151,-1.8148,-1.8146,-1.8131,-1.8144,-1.8139,-1.8109,-1.8122,-1.8105,-1.8104,-1.8102,-1.8101,-1.81,-1.8114,-1.8113,-1.8088,-1.8088,-1.8088,-1.8088,0,0,0,0,0,0,0,-1.8166,-1.8165,-1.8163,-1.815,-1.8148,-1.8137,-1.8135,-1.8143,-1.8119,-1.8121,-1.8118,-1.8116,-1.81,-1.81,-1.8099,-1.8113,-1.8088,-1.8088,-1.8088,-1.8088,-1.815,-1.8151,0,0,0,0,0,0,-1.817,-1.8166,-1.8164,-1.8162,-1.8152,-1.8138,-1.8135,-1.8137,-1.8119,-1.8115,-1.8117,-1.8114,-1.81,-1.8099,-1.8098,-1.8131,-1.8088,-1.8089,-1.8089,-1.8149,-1.815,-1.8152,0,0,0,0,0,0,-1.817,-1.817,-1.8164,-1.8163,-1.8162,-1.814,-1.8142,-1.8137,-1.8136,-1.8116,-1.8112,-1.8121,-1.8098,-1.8098,-1.8111,-1.8129,-1.8089,-1.8089,-1.8147,-1.8149,-1.8151,-1.8196,0,0,0,0,0,0,-1.817,-1.817,-1.818,-1.8164,-1.8162,-1.8177,-1.8143,-1.8138,-1.8137,-1.8133,-1.8119,-1.8115,-1.8097,-1.8111,-1.8112,-1.8129,-1.8089,-1.8145,-1.8148,-1.815,-1.8193,-1.8199,-1.8205,0,0,0,0,0,-1.817,-1.8194,-1.8181,-1.8181,-1.8174,-1.8178,-1.8177,-1.8157,-1.8139,-1.8149,-1.8136,-1.8115,-1.8127,-1.8113,-1.8113,-1.8131,-1.8144,-1.8147,-1.815,-1.819,-1.8198,-1.8205,0,0,0,0,0,0,-1.8213,-1.8191,-1.8177,-1.8196,-1.8189,-1.8171,-1.8184,-1.8166,-1.8164,-1.816,-1.8135,-1.8132,-1.8149,-1.8141,-1.8125,-1.8158,-1.8132,-1.8136,-1.8162,-1.817,-1.8176,-1.8177,-1.809,0,0,0,0,0,-1.8225,-1.823,-1.821,-1.8229,-1.8226,-1.8206,-1.8207,-1.8191,-1.8184,-1.8181,-1.8169,-1.8163,-1.8165,-1.8167,-1.8168,-1.8192,-1.8188,-1.8204,-1.8211,-1.8216,-1.8219,-1.8231,-1.8238,-1.8162,-1.8162,-1.8162,0,0,-1.8249,-1.8238,-1.8242,-1.8237,-1.823,-1.8237,-1.8204,-1.8211,-1.8216,-1.8182,-1.8194,-1.8185,-1.8177,-1.8195,-1.8203,-1.819,-1.8239,-1.822,-1.8224,-1.8224,-1.8235,-1.8242,-1.8249,-1.8164,-1.8164,-1.8163,0,0,-1.8296,-1.8288,-1.8302,-1.8296,-1.8287,-1.8273,-1.8277,-1.8261,-1.8254,-1.8266,-1.8241,-1.8246,-1.8251,-1.8245,-1.8243,-1.829,-1.827,-1.8291,-1.8323,-1.8335,-1.8341,-1.8346,-1.8363,-1.8369,-1.8294,-1.8294,-1.8294,0,-1.8327,-1.8335,-1.8312,-1.8322,-1.832,-1.829,-1.8305,-1.8301,-1.8292,-1.8292,-1.8277,-1.8282,-1.8274,-1.8292,-1.8303,-1.8303,-1.8306,-1.8292,-1.8342,-1.8347,-1.8351,-1.8367,-1.8373,-1.8297,-1.8296,-1.8296,-1.8296,0,-1.8374,-1.838,-1.8393,-1.8385,-1.8385,-1.8398,-1.8377,-1.838,-1.8365,-1.8353,-1.8366,-1.8356,-1.8354,-1.8357,-1.8342,-1.8373,-1.8365,-1.8346,-1.832,-1.8361,-1.8376,-1.8381,-1.83,-1.8299,-1.8299,-1.8298,0,0,-1.8447,-1.8427,-1.8432,-1.8428,-1.8416,-1.842,-1.8431,-1.843,-1.8433,-1.8428,-1.8437,-1.8442,-1.8425,-1.8423,-1.8408,-1.8418,-1.8456,-1.8399,-1.8398,-1.841,-1.8489,-1.8503,-1.851,-1.8444,-1.8445,-1.8445,-1.849,0,-1.849,-1.8508,-1.8488,-1.851,-1.8516,-1.8488,-1.8497,-1.8491,-1.8481,-1.8484,-1.8472,-1.8476,-1.8453,-1.8452,-1.8461,-1.845,-1.8472,-1.8446,-1.8452,-1.8452,-1.8455,-1.8518,-1.8532,-1.8575,-1.8495,-1.8496,-1.8497,0,-1.8544,-1.8542,-1.8564,-1.855,-1.8552,-1.8561,-1.8559,-1.8562,-1.8555,-1.8546,-1.8544,-1.8526,-1.8536,-1.8511,-1.8525,-1.8508,-1.851,-1.8504,-1.8506,-1.8505,-1.8477,-1.8519,-1.8588,-1.8595,-1.8506,-1.8505,-1.8504,0,-1.8595,-1.8597,-1.8611,-1.8609,-1.8594,-1.8601,-1.8595,-1.8586,-1.8587,-1.8585,-1.8585,-1.8584,-1.8584,-1.8584,-1.8566,-1.8549,-1.8583,-1.8556,-1.8577,-1.8577,-1.8585,-1.8584,-1.8655,-1.8586,-1.8586,-1.8586,-1.8586,0,-1.8645,-1.866,-1.8634,-1.8642,-1.8658,-1.8636,-1.8653,-1.8644,-1.8637,-1.8643,-1.8619,-1.8626,-1.8602,-1.8607,-1.8593,-1.8607,-1.8607,-1.8601,-1.8597,-1.8603,-1.8604,-1.8603,-1.86,-1.8587,-1.8587,-1.8587,-1.8586,0,-1.8705,-1.8687,-1.8701,-1.8685,-1.8682,-1.8695,-1.8681,-1.8689,-1.8677,-1.8686,-1.8687,-1.8668,-1.8672,-1.8655,-1.8656,-1.8647,-1.8668,-1.8659,-1.867,-1.8668,-1.8689,-1.8688,-1.8762,-1.877,-1.8696,-1.8697,-1.8698,0,-1.8738,-1.8749,-1.8735,-1.8738,-1.8733,-1.8737,-1.8738,-1.8717,-1.8719,-1.8712,-1.872,-1.8722,-1.8723,-1.8731,-1.8718,-1.8719,-1.871,-1.8736,-1.871,-1.8715,-1.871,-1.871,-1.8711,-1.8741,-1.8742,-1.8743,-1.8743,0,-1.8799,-1.8791,-1.8792,-1.8791,-1.8793,-1.8791,-1.8788,-1.8792,-1.8769,-1.8772,-1.8776,-1.8777,-1.8778,-1.878,-1.8779,-1.8773,-1.8755,-1.8752,-1.8756,-1.8763,-1.8769,-1.8766,-1.8685,-1.875,-1.8749,-1.8749,-1.8748,-1.8748,-1.8847,-1.8855,-1.8847,-1.885,-1.8845,-1.8843,-1.8849,-1.8838,-1.8841,-1.884,-1.8828,-1.8835,-1.8828,-1.8823,-1.882,-1.8825,-1.8813,-1.882,-1.8821,-1.8823,-1.8827,-1.8768,-1.8824,-1.8824,-1.8824,-1.8824,-1.8824,0,-1.8907,-1.89,-1.8903,-1.8899,-1.8902,-1.8885,-1.888,-1.8884,-1.889,-1.8885,-1.8886,-1.8891,-1.8893,-1.8881,-1.8882,-1.8888,-1.888,-1.8889,-1.8889,-1.8888,-1.8838,-1.8834,-1.8896,-1.8896,-1.8896,-1.8896,-1.8896,-1.8896,-1.8938,-1.8952,-1.8942,-1.8954,-1.8947,-1.8953,-1.8952,-1.895,-1.8946,-1.8953,-1.8955,-1.8947,-1.8939,-1.8939,-1.8941,-1.8937,-1.8939,-1.8951,-1.8945,-1.8898,-1.8891,-1.8884,-1.888,-1.8952,-1.8952,-1.8994,-1.8994,-1.8995]}]]